| time (UTC) | temp C | wind direction | speed KPH | gust KPH | rain 1hr cm | rain 24hr cm | rain mn cm | humidity % | barometer mb |
| 20260507191551 | 23 | 164 | 6.4 | 14.5 | 0.00 | 0.08 | 0.05 | 39 | 1020.6 |
| 20260507191044 | 23 | 166 | 3.2 | 14.5 | 0.00 | 0.08 | 0.05 | 43 | 1020.6 |
| 20260507190544 | 24 | 208 | 1.6 | 9.7 | 0.00 | 0.08 | 0.05 | 44 | 1020.7 |
| 20260507190049 | 24 | 136 | 3.2 | 12.9 | 0.00 | 0.08 | 0.05 | 38 | 1020.8 |
| 20260507185544 | 25 | 209 | 4.8 | 12.9 | 0.00 | 0.08 | 0.05 | 38 | 1020.7 |
| 20260507185047 | 25 | 180 | 0.0 | 6.4 | 0.00 | 0.08 | 0.05 | 35 | 1020.7 |
| 20260507184550 | 25 | 352 | 0.0 | 11.3 | 0.00 | 0.08 | 0.05 | 26 | 1020.8 |
| 20260507184047 | 24 | 307 | 3.2 | 11.3 | 0.00 | 0.08 | 0.05 | 23 | 1021.0 |
| 20260507183550 | 24 | 205 | 3.2 | 11.3 | 0.00 | 0.08 | 0.05 | 24 | 1020.9 |
| 20260507183051 | 24 | 165 | 1.6 | 8.0 | 0.00 | 0.08 | 0.05 | 28 | 1021.0 |
| 20260507182545 | 24 | 213 | 1.6 | 9.7 | 0.00 | 0.08 | 0.05 | 25 | 1021.0 |
| 20260507182048 | 24 | 186 | 1.6 | 9.7 | 0.00 | 0.08 | 0.05 | 29 | 1021.0 |
| 20260507181556 | 24 | 197 | 3.2 | 9.7 | 0.00 | 0.08 | 0.05 | 25 | 1021.0 |
| 20260507181048 | 24 | 171 | 1.6 | 9.7 | 0.00 | 0.08 | 0.05 | 26 | 1021.0 |
| 20260507180547 | 24 | 136 | 1.6 | 8.0 | 0.00 | 0.08 | 0.05 | 25 | 1021.1 |
| 20260507180056 | 24 | 69 | 1.6 | 8.0 | 0.00 | 0.08 | 0.05 | 25 | 1021.1 |
| 20260507175548 | 23 | 360 | 3.2 | 11.3 | 0.00 | 0.08 | 0.05 | 25 | 1021.2 |
| 20260507175045 | 23 | 181 | 1.6 | 12.9 | 0.00 | 0.08 | 0.05 | 26 | 1021.1 |
| 20260507174604 | 23 | 91 | 1.6 | 12.9 | 0.00 | 0.08 | 0.05 | 26 | 1021.0 |
| 20260507174045 | 23 | 103 | 1.6 | 11.3 | 0.00 | 0.08 | 0.05 | 27 | 1021.0 |
| 20260507173544 | 23 | 240 | 1.6 | 9.7 | 0.00 | 0.08 | 0.05 | 27 | 1021.0 |
| 20260507173051 | 23 | 285 | 1.6 | 8.0 | 0.00 | 0.08 | 0.05 | 30 | 1021.0 |
| 20260507172547 | 23 | 326 | 0.0 | 6.4 | 0.00 | 0.08 | 0.05 | 34 | 1021.0 |
| 20260507172047 | 23 | 175 | 0.0 | 8.0 | 0.00 | 0.08 | 0.05 | 33 | 1020.9 |
| 20260507171603 | 22 | 153 | 1.6 | 8.0 | 0.00 | 0.08 | 0.05 | 29 | 1020.9 |
| 20260507171048 | 22 | 338 | 0.0 | 6.4 | 0.00 | 0.08 | 0.05 | 34 | 1021.0 |
| 20260507170548 | 22 | 171 | 1.6 | 11.3 | 0.03 | 0.08 | 0.05 | 32 | 1021.0 |
| 20260507170056 | 22 | 140 | 3.2 | 11.3 | 0.03 | 0.08 | 0.05 | 35 | 1021.0 |
| 20260507165548 | 21 | 211 | 3.2 | 8.0 | 0.03 | 0.08 | 0.05 | 31 | 1021.0 |
| 20260507165047 | 21 | 337 | 1.6 | 6.4 | 0.03 | 0.08 | 0.05 | 35 | 1021.0 |
| 20260507164555 | 21 | 0 | 0.0 | 6.4 | 0.03 | 0.08 | 0.05 | 41 | 1020.9 |
| 20260507164048 | 20 | 0 | 1.6 | 6.4 | 0.03 | 0.08 | 0.05 | 44 | 1020.8 |
| 20260507163547 | 19 | 15 | 0.0 | 4.8 | 0.03 | 0.08 | 0.05 | 49 | 1021.0 |
| 20260507163049 | 19 | 0 | 1.6 | 4.8 | 0.03 | 0.08 | 0.05 | 45 | 1021.1 |
| 20260507162548 | 18 | 53 | 0.0 | 3.2 | 0.03 | 0.08 | 0.05 | 56 | 1021.1 |
| 20260507162047 | 18 | 105 | 0.0 | 3.2 | 0.03 | 0.08 | 0.05 | 55 | 1021.1 |
| 20260507161552 | 17 | 44 | 1.6 | 6.4 | 0.03 | 0.08 | 0.05 | 60 | 1021.0 |
| 20260507161044 | 16 | 0 | 0.0 | 6.4 | 0.03 | 0.08 | 0.05 | 70 | 1021.1 |
| 20260507160544 | 16 | 56 | 0.0 | 3.2 | 0.00 | 0.05 | 0.03 | 71 | 1021.0 |
| 20260507160055 | 16 | 40 | 0.0 | 3.2 | 0.00 | 0.05 | 0.03 | 71 | 1021.0 |
| 20260507155546 | 15 | 40 | 1.6 | 8.0 | 0.00 | 0.08 | 0.03 | 70 | 1021.0 |
| 20260507155044 | 15 | 0 | 1.6 | 8.0 | 0.00 | 0.08 | 0.03 | 74 | 1021.0 |
| 20260507154551 | 14 | 46 | 0.0 | 8.0 | 0.00 | 0.08 | 0.03 | 73 | 1021.0 |
| 20260507154049 | 13 | 0 | 1.6 | 3.2 | 0.00 | 0.08 | 0.03 | 72 | 1021.0 |
| 20260507153548 | 13 | 38 | 0.0 | 3.2 | 0.00 | 0.08 | 0.03 | 76 | 1020.9 |
| 20260507153051 | 12 | 0 | 0.0 | 3.2 | 0.00 | 0.08 | 0.03 | 76 | 1020.9 |
| 20260507152548 | 12 | 0 | 0.0 | 3.2 | 0.00 | 0.08 | 0.03 | 75 | 1020.9 |
| 20260507152048 | 12 | 43 | 0.0 | 4.8 | 0.00 | 0.08 | 0.03 | 76 | 1020.9 |
| 20260507151555 | 11 | 44 | 1.6 | 4.8 | 0.00 | 0.08 | 0.03 | 77 | 1021.0 |
| 20260507151049 | 11 | 38 | 1.6 | 3.2 | 0.00 | 0.08 | 0.03 | 78 | 1021.0 |
| 20260507150547 | 11 | 58 | 0.0 | 3.2 | 0.00 | 0.08 | 0.03 | 79 | 1020.9 |
| 20260507150054 | 11 | 49 | 1.6 | 3.2 | 0.00 | 0.08 | 0.03 | 80 | 1020.8 |
| 20260507145544 | 10 | 0 | 0.0 | 3.2 | 0.00 | 0.08 | 0.03 | 82 | 1020.9 |
| 20260507145044 | 10 | 25 | 0.0 | 3.2 | 0.00 | 0.08 | 0.03 | 84 | 1020.9 |
| 20260507144615 | 10 | 0 | 0.0 | 1.6 | 0.00 | 0.08 | 0.03 | 85 | 1020.8 |
| 20260507144047 | 10 | 0 | 0.0 | 1.6 | 0.00 | 0.08 | 0.03 | 86 | 1020.9 |
| 20260507143544 | 10 | 0 | 0.0 | 1.6 | 0.00 | 0.08 | 0.03 | 86 | 1020.8 |
| 20260507143055 | 9 | 0 | 0.0 | 0.0 | 0.00 | 0.08 | 0.03 | 86 | 1020.9 |
| 20260507142544 | 9 | 0 | 0.0 | 0.0 | 0.00 | 0.08 | 0.03 | 85 | 1020.8 |
| 20260507142044 | 9 | 0 | 0.0 | 0.0 | 0.00 | 0.08 | 0.03 | 84 | 1020.6 |
| 20260507141612 | 9 | 0 | 0.0 | 0.0 | 0.00 | 0.08 | 0.03 | 83 | 1020.6 |
| 20260507141044 | 9 | 0 | 0.0 | 0.0 | 0.00 | 0.08 | 0.03 | 80 | 1020.6 |
| 20260507140544 | 9 | 0 | 0.0 | 0.0 | 0.00 | 0.08 | 0.03 | 79 | 1020.5 |
| 20260507140056 | 9 | 0 | 0.0 | 0.0 | 0.00 | 0.08 | 0.03 | 78 | 1020.4 |
| 20260507135551 | 9 | 0 | 0.0 | 0.0 | 0.00 | 0.08 | 0.03 | 78 | 1020.5 |
| 20260507135048 | 9 | 0 | 0.0 | 0.0 | 0.00 | 0.08 | 0.03 | 78 | 1020.5 |
| 20260507134556 | 9 | 0 | 0.0 | 0.0 | 0.00 | 0.08 | 0.03 | 77 | 1020.5 |
| 20260507134047 | 9 | 0 | 0.0 | 0.0 | 0.00 | 0.08 | 0.03 | 76 | 1020.4 |
| 20260507133548 | 8 | 0 | 0.0 | 0.0 | 0.00 | 0.08 | 0.03 | 76 | 1020.4 |
| 20260507133055 | 8 | 0 | 0.0 | 0.0 | 0.00 | 0.08 | 0.03 | 75 | 1020.5 |
| 20260507132544 | 9 | 0 | 0.0 | 0.0 | 0.00 | 0.08 | 0.03 | 75 | 1020.3 |
| 20260507132048 | 9 | 0 | 0.0 | 0.0 | 0.00 | 0.08 | 0.03 | 75 | 1020.3 |
| 20260507131552 | 8 | 0 | 0.0 | 0.0 | 0.00 | 0.08 | 0.03 | 74 | 1020.3 |
| 20260507131044 | 8 | 0 | 0.0 | 0.0 | 0.00 | 0.08 | 0.03 | 75 | 1020.2 |
| 20260507130547 | 9 | 0 | 0.0 | 0.0 | 0.00 | 0.08 | 0.03 | 74 | 1020.2 |
| 20260507130104 | 9 | 0 | 0.0 | 1.6 | 0.00 | 0.08 | 0.03 | 75 | 1020.1 |
| 20260507125548 | 9 | 0 | 0.0 | 3.2 | 0.00 | 0.08 | 0.03 | 75 | 1019.9 |
| 20260507125047 | 9 | 0 | 0.0 | 3.2 | 0.00 | 0.08 | 0.03 | 76 | 1019.9 |
| 20260507124554 | 9 | 0 | 0.0 | 3.2 | 0.00 | 0.08 | 0.03 | 76 | 1019.9 |
| 20260507124046 | 9 | 0 | 0.0 | 3.2 | 0.00 | 0.08 | 0.03 | 76 | 1019.9 |
| 20260507123544 | 9 | 360 | 0.0 | 3.2 | 0.00 | 0.08 | 0.03 | 78 | 1019.8 |
| 20260507123053 | 9 | 360 | 1.6 | 3.2 | 0.00 | 0.08 | 0.03 | 78 | 1019.8 |
| 20260507122546 | 9 | 0 | 0.0 | 3.2 | 0.00 | 0.08 | 0.03 | 78 | 1019.8 |
| 20260507122047 | 9 | 0 | 1.6 | 4.8 | 0.00 | 0.08 | 0.03 | 77 | 1019.8 |
| 20260507121552 | 9 | 327 | 1.6 | 4.8 | 0.00 | 0.08 | 0.03 | 79 | 1019.7 |
| 20260507121048 | 9 | 0 | 1.6 | 3.2 | 0.00 | 0.08 | 0.03 | 77 | 1019.8 |
| 20260507120545 | 9 | 340 | 0.0 | 3.2 | 0.00 | 0.08 | 0.03 | 78 | 1019.8 |
| 20260507120053 | 9 | 340 | 0.0 | 3.2 | 0.00 | 0.08 | 0.03 | 77 | 1019.8 |
| 20260507115548 | 9 | 340 | 1.6 | 3.2 | 0.00 | 0.08 | 0.03 | 77 | 1019.8 |
| 20260507115047 | 9 | 345 | 1.6 | 3.2 | 0.00 | 0.08 | 0.03 | 79 | 1019.8 |
| 20260507114558 | 8 | 345 | 1.6 | 3.2 | 0.00 | 0.08 | 0.03 | 78 | 1019.8 |
| 20260507114048 | 8 | 345 | 0.0 | 3.2 | 0.00 | 0.08 | 0.03 | 79 | 1019.8 |
| 20260507113544 | 8 | 0 | 0.0 | 1.6 | 0.00 | 0.08 | 0.03 | 79 | 1019.9 |
| 20260507113051 | 8 | 0 | 0.0 | 1.6 | 0.00 | 0.08 | 0.03 | 79 | 1019.9 |
| 20260507112547 | 9 | 0 | 0.0 | 3.2 | 0.00 | 0.08 | 0.03 | 79 | 1019.9 |
| 20260507112046 | 9 | 345 | 0.0 | 3.2 | 0.00 | 0.08 | 0.03 | 79 | 1019.9 |
| 20260507111551 | 8 | 0 | 0.0 | 3.2 | 0.00 | 0.08 | 0.03 | 79 | 1019.9 |
| 20260507111047 | 8 | 0 | 0.0 | 4.8 | 0.00 | 0.08 | 0.03 | 80 | 1019.8 |
| 20260507110548 | 8 | 0 | 1.6 | 4.8 | 0.00 | 0.08 | 0.03 | 80 | 1019.8 |
| 20260507110053 | 8 | 323 | 0.0 | 3.2 | 0.00 | 0.08 | 0.03 | 81 | 1019.8 |
| 20260507105548 | 8 | 360 | 0.0 | 4.8 | 0.00 | 0.08 | 0.03 | 81 | 1019.9 |
| 20260507105051 | 8 | 0 | 0.0 | 4.8 | 0.00 | 0.08 | 0.03 | 81 | 1019.9 |
| 20260507104619 | 8 | 0 | 0.0 | 4.8 | 0.00 | 0.08 | 0.03 | 80 | 1020.0 |
| 20260507104048 | 8 | 0 | 0.0 | 3.2 | 0.00 | 0.08 | 0.03 | 80 | 1020.0 |
| 20260507103548 | 9 | 0 | 0.0 | 1.6 | 0.00 | 0.08 | 0.03 | 80 | 1020.0 |
| 20260507103052 | 9 | 342 | 0.0 | 1.6 | 0.00 | 0.08 | 0.03 | 78 | 1020.1 |
| 20260507102545 | 9 | 342 | 0.0 | 1.6 | 0.00 | 0.08 | 0.03 | 78 | 1020.1 |
| 20260507102046 | 9 | 0 | 0.0 | 3.2 | 0.00 | 0.08 | 0.03 | 79 | 1020.0 |
| 20260507101552 | 9 | 0 | 0.0 | 3.2 | 0.00 | 0.08 | 0.03 | 79 | 1020.0 |
| 20260507101050 | 9 | 342 | 0.0 | 3.2 | 0.00 | 0.08 | 0.03 | 80 | 1020.0 |
| 20260507100545 | 9 | 342 | 1.6 | 3.2 | 0.00 | 0.08 | 0.03 | 80 | 1020.0 |
| 20260507100058 | 9 | 342 | 1.6 | 3.2 | 0.00 | 0.08 | 0.03 | 80 | 1020.0 |
| 20260507095547 | 9 | 342 | 1.6 | 3.2 | 0.00 | 0.08 | 0.03 | 79 | 1020.0 |
| 20260507095049 | 9 | 342 | 0.0 | 3.2 | 0.00 | 0.08 | 0.03 | 79 | 1020.2 |
| 20260507094550 | 9 | 342 | 0.0 | 3.2 | 0.00 | 0.08 | 0.03 | 78 | 1020.2 |
| 20260507094045 | 9 | 0 | 0.0 | 3.2 | 0.00 | 0.08 | 0.03 | 79 | 1020.2 |
| 20260507093548 | 9 | 342 | 0.0 | 3.2 | 0.00 | 0.08 | 0.03 | 78 | 1020.2 |
| 20260507093055 | 9 | 0 | 0.0 | 3.2 | 0.00 | 0.08 | 0.03 | 78 | 1020.2 |
| 20260507092548 | 9 | 0 | 0.0 | 3.2 | 0.00 | 0.08 | 0.03 | 78 | 1020.2 |
| 20260507092050 | 9 | 342 | 0.0 | 3.2 | 0.00 | 0.08 | 0.03 | 79 | 1020.3 |
| 20260507091558 | 9 | 0 | 0.0 | 1.6 | 0.00 | 0.08 | 0.03 | 79 | 1020.3 |
| 20260507091048 | 9 | 0 | 0.0 | 1.6 | 0.00 | 0.08 | 0.03 | 79 | 1020.3 |
| 20260507090548 | 9 | 0 | 0.0 | 0.0 | 0.00 | 0.08 | 0.03 | 79 | 1020.5 |
| 20260507090050 | 9 | 0 | 0.0 | 1.6 | 0.00 | 0.08 | 0.03 | 80 | 1020.5 |
| 20260507085547 | 9 | 0 | 0.0 | 1.6 | 0.00 | 0.08 | 0.03 | 80 | 1020.5 |
| 20260507085049 | 9 | 0 | 0.0 | 1.6 | 0.00 | 0.08 | 0.03 | 80 | 1020.6 |
| 20260507084553 | 9 | 0 | 0.0 | 0.0 | 0.00 | 0.08 | 0.03 | 79 | 1020.6 |
| 20260507084045 | 9 | 0 | 0.0 | 1.6 | 0.00 | 0.08 | 0.03 | 79 | 1020.6 |
| 20260507083547 | 10 | 0 | 0.0 | 1.6 | 0.00 | 0.08 | 0.03 | 81 | 1020.6 |
| 20260507083053 | 10 | 0 | 0.0 | 1.6 | 0.00 | 0.08 | 0.03 | 79 | 1020.6 |
| 20260507082551 | 10 | 0 | 0.0 | 1.6 | 0.00 | 0.08 | 0.03 | 78 | 1020.7 |
| 20260507082045 | 9 | 0 | 0.0 | 1.6 | 0.00 | 0.08 | 0.03 | 78 | 1020.7 |
| 20260507081551 | 9 | 342 | 0.0 | 1.6 | 0.03 | 0.08 | 0.03 | 79 | 1020.7 |
| 20260507081048 | 9 | 0 | 0.0 | 3.2 | 0.03 | 0.08 | 0.03 | 80 | 1020.7 |
| 20260507080546 | 8 | 0 | 0.0 | 3.2 | 0.03 | 0.08 | 0.03 | 82 | 1020.8 |
| 20260507080056 | 8 | 0 | 0.0 | 1.6 | 0.03 | 0.08 | 0.03 | 82 | 1020.8 |
| 20260507075548 | 8 | 0 | 0.0 | 1.6 | 0.03 | 0.10 | 0.03 | 84 | 1020.8 |
| 20260507075048 | 8 | 0 | 0.0 | 1.6 | 0.03 | 0.10 | 0.03 | 84 | 1020.9 |
| 20260507074556 | 8 | 0 | 0.0 | 0.0 | 0.03 | 0.10 | 0.03 | 84 | 1020.9 |
| 20260507074046 | 8 | 0 | 0.0 | 0.0 | 0.03 | 0.10 | 0.03 | 84 | 1020.9 |
| 20260507073548 | 8 | 0 | 0.0 | 0.0 | 0.03 | 0.10 | 0.03 | 84 | 1020.9 |
| 20260507073101 | 8 | 0 | 0.0 | 0.0 | 0.03 | 0.10 | 0.03 | 83 | 1020.9 |
| 20260507072547 | 8 | 0 | 0.0 | 0.0 | 0.03 | 0.10 | 0.03 | 83 | 1021.0 |
| 20260507072048 | 8 | 0 | 0.0 | 0.0 | 0.03 | 0.10 | 0.03 | 83 | 1021.0 |
| 20260507071558 | 8 | 0 | 0.0 | 0.0 | 0.00 | 0.08 | 0.00 | 83 | 1021.1 |
| 20260507071047 | 8 | 0 | 0.0 | 0.0 | 0.00 | 0.08 | 0.00 | 83 | 1021.1 |
| 20260507070547 | 8 | 0 | 0.0 | 0.0 | 0.00 | 0.08 | 0.00 | 84 | 1021.2 |
| 20260507065549 | 8 | 0 | 0.0 | 0.0 | 0.00 | 0.08 | 0.08 | 85 | 1021.3 |
| 20260507065044 | 8 | 0 | 0.0 | 0.0 | 0.00 | 0.08 | 0.08 | 85 | 1021.3 |
| 20260507064559 | 9 | 0 | 0.0 | 0.0 | 0.00 | 0.08 | 0.08 | 84 | 1021.3 |
| 20260507064047 | 9 | 0 | 0.0 | 0.0 | 0.00 | 0.08 | 0.08 | 83 | 1021.3 |
| 20260507063550 | 9 | 0 | 0.0 | 0.0 | 0.00 | 0.08 | 0.08 | 83 | 1021.4 |
| 20260507063104 | 9 | 0 | 0.0 | 1.6 | 0.00 | 0.08 | 0.08 | 83 | 1021.4 |
| 20260507062546 | 9 | 0 | 0.0 | 1.6 | 0.00 | 0.08 | 0.08 | 82 | 1021.3 |
| 20260507062046 | 10 | 342 | 0.0 | 0.0 | 0.00 | 0.08 | 0.08 | 82 | 1021.4 |
| 20260507061558 | 10 | 0 | 0.0 | 1.6 | 0.00 | 0.08 | 0.08 | 81 | 1021.3 |
| 20260507061048 | 10 | 0 | 0.0 | 1.6 | 0.00 | 0.08 | 0.08 | 81 | 1021.2 |
| 20260507060545 | 10 | 0 | 0.0 | 1.6 | 0.00 | 0.08 | 0.08 | 82 | 1021.3 |
| 20260507060058 | 10 | 0 | 0.0 | 1.6 | 0.00 | 0.08 | 0.08 | 82 | 1021.1 |
| 20260507055547 | 10 | 0 | 0.0 | 3.2 | 0.00 | 0.08 | 0.08 | 81 | 1021.1 |
| 20260507055047 | 10 | 342 | 0.0 | 3.2 | 0.00 | 0.08 | 0.08 | 81 | 1021.1 |
| 20260507054601 | 10 | 342 | 0.0 | 3.2 | 0.00 | 0.08 | 0.08 | 80 | 1021.2 |
| 20260507054047 | 10 | 342 | 0.0 | 3.2 | 0.00 | 0.08 | 0.08 | 80 | 1021.4 |
| 20260507053547 | 11 | 342 | 0.0 | 3.2 | 0.00 | 0.08 | 0.08 | 79 | 1021.3 |
| 20260507053059 | 11 | 342 | 0.0 | 4.8 | 0.00 | 0.08 | 0.08 | 80 | 1021.3 |
| 20260507052546 | 11 | 342 | 0.0 | 4.8 | 0.00 | 0.08 | 0.08 | 78 | 1021.3 |
| 20260507052047 | 11 | 324 | 0.0 | 6.4 | 0.00 | 0.08 | 0.08 | 77 | 1021.4 |
| 20260507051558 | 11 | 0 | 0.0 | 6.4 | 0.00 | 0.08 | 0.08 | 78 | 1021.4 |
| 20260507051046 | 11 | 5 | 0.0 | 3.2 | 0.00 | 0.08 | 0.08 | 79 | 1021.4 |
| 20260507050547 | 11 | 0 | 0.0 | 3.2 | 0.00 | 0.08 | 0.08 | 78 | 1021.4 |
| 20260507050056 | 11 | 0 | 0.0 | 3.2 | 0.00 | 0.08 | 0.08 | 80 | 1021.4 |
| 20260507045551 | 11 | 0 | 0.0 | 3.2 | 0.00 | 0.08 | 0.08 | 80 | 1021.4 |
| 20260507045046 | 11 | 5 | 0.0 | 3.2 | 0.00 | 0.08 | 0.08 | 81 | 1021.3 |
| 20260507044601 | 11 | 0 | 0.0 | 3.2 | 0.00 | 0.08 | 0.08 | 80 | 1021.3 |
| 20260507044043 | 11 | 5 | 0.0 | 4.8 | 0.00 | 0.08 | 0.08 | 81 | 1021.3 |
| 20260507043547 | 11 | 5 | 0.0 | 4.8 | 0.00 | 0.08 | 0.08 | 82 | 1021.3 |
| 20260507043059 | 10 | 5 | 0.0 | 4.8 | 0.00 | 0.08 | 0.08 | 83 | 1021.2 |
| 20260507042544 | 10 | 0 | 0.0 | 3.2 | 0.00 | 0.08 | 0.08 | 85 | 1021.1 |
| 20260507042047 | 10 | 0 | 0.0 | 3.2 | 0.00 | 0.08 | 0.08 | 85 | 1021.1 |
| 20260507041559 | 10 | 0 | 0.0 | 1.6 | 0.00 | 0.08 | 0.08 | 86 | 1021.1 |
| 20260507041045 | 10 | 0 | 0.0 | 1.6 | 0.00 | 0.08 | 0.08 | 86 | 1021.1 |
| 20260507040549 | 10 | 0 | 0.0 | 1.6 | 0.00 | 0.08 | 0.08 | 87 | 1021.1 |
| 20260507040054 | 10 | 0 | 0.0 | 1.6 | 0.00 | 0.08 | 0.08 | 87 | 1021.1 |
| 20260507035547 | 10 | 0 | 0.0 | 3.2 | 0.00 | 0.10 | 0.08 | 88 | 1020.9 |
| 20260507035047 | 10 | 0 | 0.0 | 3.2 | 0.00 | 0.10 | 0.08 | 88 | 1020.9 |
| 20260507034606 | 10 | 0 | 0.0 | 3.2 | 0.00 | 0.10 | 0.08 | 88 | 1020.8 |
| 20260507034044 | 10 | 0 | 0.0 | 3.2 | 0.00 | 0.10 | 0.08 | 88 | 1020.7 |
| 20260507033547 | 10 | 0 | 0.0 | 3.2 | 0.00 | 0.10 | 0.08 | 88 | 1020.7 |
| 20260507033056 | 10 | 0 | 0.0 | 1.6 | 0.00 | 0.10 | 0.08 | 88 | 1020.6 |
| 20260507032544 | 10 | 0 | 0.0 | 0.0 | 0.00 | 0.10 | 0.08 | 88 | 1020.6 |
| 20260507032046 | 10 | 0 | 0.0 | 1.6 | 0.00 | 0.10 | 0.08 | 88 | 1020.6 |
| 20260507031559 | 10 | 0 | 0.0 | 1.6 | 0.00 | 0.10 | 0.08 | 88 | 1020.6 |
| 20260507031044 | 11 | 0 | 0.0 | 1.6 | 0.00 | 0.10 | 0.08 | 88 | 1020.6 |
| 20260507030550 | 11 | 0 | 0.0 | 0.0 | 0.00 | 0.10 | 0.08 | 87 | 1020.5 |
| 20260507030101 | 11 | 0 | 0.0 | 0.0 | 0.00 | 0.10 | 0.08 | 88 | 1020.6 |
| 20260507025548 | 11 | 0 | 0.0 | 1.6 | 0.00 | 0.10 | 0.08 | 87 | 1020.6 |
| 20260507025047 | 11 | 0 | 0.0 | 1.6 | 0.00 | 0.10 | 0.08 | 87 | 1020.5 |
| 20260507024558 | 11 | 0 | 0.0 | 1.6 | 0.00 | 0.10 | 0.08 | 87 | 1020.5 |
| 20260507024045 | 11 | 0 | 0.0 | 1.6 | 0.00 | 0.10 | 0.08 | 86 | 1020.4 |
| 20260507023545 | 12 | 0 | 0.0 | 0.0 | 0.00 | 0.10 | 0.08 | 86 | 1020.4 |
| 20260507023056 | 12 | 0 | 0.0 | 0.0 | 0.00 | 0.10 | 0.08 | 86 | 1020.4 |
| 20260507022545 | 12 | 0 | 0.0 | 0.0 | 0.00 | 0.10 | 0.08 | 84 | 1020.5 |
| 20260507022046 | 12 | 0 | 0.0 | 0.0 | 0.00 | 0.10 | 0.08 | 84 | 1020.5 |
| 20260507021557 | 12 | 0 | 0.0 | 0.0 | 0.00 | 0.10 | 0.08 | 84 | 1020.4 |
| 20260507021047 | 12 | 0 | 0.0 | 0.0 | 0.00 | 0.10 | 0.08 | 83 | 1020.3 |
| 20260507020547 | 13 | 0 | 0.0 | 0.0 | 0.00 | 0.10 | 0.08 | 82 | 1020.4 |
| 20260507020055 | 13 | 0 | 0.0 | 1.6 | 0.00 | 0.10 | 0.08 | 82 | 1020.3 |
| 20260507015546 | 13 | 0 | 0.0 | 1.6 | 0.00 | 0.10 | 0.08 | 81 | 1020.2 |
| 20260507015046 | 13 | 0 | 0.0 | 0.0 | 0.00 | 0.10 | 0.08 | 81 | 1020.3 |
| 20260507014556 | 13 | 0 | 0.0 | 1.6 | 0.00 | 0.10 | 0.08 | 80 | 1020.3 |
| 20260507014046 | 14 | 0 | 0.0 | 3.2 | 0.00 | 0.10 | 0.08 | 78 | 1020.3 |
| 20260507013547 | 14 | 0 | 0.0 | 9.7 | 0.00 | 0.10 | 0.08 | 77 | 1020.2 |
| 20260507013101 | 15 | 0 | 0.0 | 9.7 | 0.00 | 0.10 | 0.08 | 77 | 1020.2 |
| 20260507012547 | 15 | 190 | 0.0 | 6.4 | 0.00 | 0.10 | 0.08 | 76 | 1020.2 |
| 20260507012047 | 15 | 0 | 0.0 | 6.4 | 0.00 | 0.10 | 0.08 | 75 | 1020.1 |
| 20260507011556 | 15 | 0 | 1.6 | 6.4 | 0.00 | 0.10 | 0.08 | 74 | 1020.2 |
| 20260507011051 | 15 | 195 | 1.6 | 8.0 | 0.00 | 0.10 | 0.08 | 74 | 1020.2 |
| 20260507010547 | 15 | 224 | 1.6 | 9.7 | 0.00 | 0.10 | 0.08 | 73 | 1020.0 |
| 20260507010047 | 16 | 236 | 1.6 | 11.3 | 0.00 | 0.10 | 0.08 | 72 | 1020.0 |
| 20260507005547 | 16 | 0 | 3.2 | 12.9 | 0.00 | 0.13 | 0.08 | 72 | 1020.0 |
| 20260507005046 | 16 | 231 | 4.8 | 12.9 | 0.00 | 0.13 | 0.08 | 71 | 1020.0 |
| 20260507004550 | 16 | 181 | 1.6 | 6.4 | 0.00 | 0.13 | 0.08 | 70 | 1020.0 |
| 20260507004047 | 16 | 0 | 1.6 | 6.4 | 0.00 | 0.13 | 0.08 | 69 | 1020.0 |
| 20260507003550 | 17 | 0 | 0.0 | 6.4 | 0.00 | 0.13 | 0.08 | 69 | 1019.9 |
| 20260507003051 | 17 | 0 | 0.0 | 8.0 | 0.00 | 0.13 | 0.08 | 68 | 1019.9 |
| 20260507002546 | 17 | 161 | 3.2 | 8.0 | 0.00 | 0.13 | 0.08 | 67 | 1019.9 |
| 20260507002046 | 17 | 205 | 1.6 | 6.4 | 0.00 | 0.13 | 0.08 | 66 | 1019.7 |
| 20260507001552 | 17 | 205 | 1.6 | 11.3 | 0.00 | 0.13 | 0.08 | 66 | 1019.7 |
| 20260507001045 | 17 | 209 | 3.2 | 11.3 | 0.00 | 0.13 | 0.08 | 66 | 1019.7 |
| 20260507000551 | 17 | 211 | 3.2 | 11.3 | 0.00 | 0.13 | 0.08 | 65 | 1019.6 |
| 20260507000053 | 17 | 205 | 4.8 | 16.1 | 0.00 | 0.13 | 0.08 | 64 | 1019.6 |
| 20260506235547 | 17 | 156 | 3.2 | 16.1 | 0.00 | 0.13 | 0.08 | 65 | 1019.5 |
| 20260506235050 | 17 | 0 | 1.6 | 9.7 | 0.00 | 0.13 | 0.08 | 64 | 1019.4 |
| 20260506234555 | 17 | 151 | 3.2 | 12.9 | 0.00 | 0.13 | 0.08 | 66 | 1019.5 |
| 20260506234051 | 17 | 157 | 4.8 | 12.9 | 0.00 | 0.13 | 0.08 | 64 | 1019.5 |
| 20260506233547 | 17 | 188 | 3.2 | 11.3 | 0.00 | 0.13 | 0.08 | 63 | 1019.4 |
| 20260506233052 | 17 | 145 | 3.2 | 11.3 | 0.00 | 0.13 | 0.08 | 64 | 1019.5 |
| 20260506232549 | 18 | 172 | 4.8 | 11.3 | 0.00 | 0.13 | 0.08 | 62 | 1019.5 |
| 20260506232044 | 18 | 177 | 1.6 | 8.0 | 0.00 | 0.13 | 0.08 | 61 | 1019.5 |
| 20260506231651 | 18 | 271 | 1.6 | 9.7 | 0.00 | 0.13 | 0.08 | 61 | 1019.5 |
| 20260506231048 | 18 | 159 | 3.2 | 9.7 | 0.00 | 0.13 | 0.08 | 61 | 1019.5 |
| 20260506230546 | 18 | 190 | 1.6 | 11.3 | 0.00 | 0.13 | 0.08 | 60 | 1019.5 |
| 20260506230056 | 18 | 38 | 1.6 | 11.3 | 0.00 | 0.13 | 0.08 | 61 | 1019.5 |
| 20260506225548 | 18 | 158 | 1.6 | 8.0 | 0.00 | 0.15 | 0.08 | 61 | 1019.6 |
| 20260506225047 | 18 | 138 | 3.2 | 11.3 | 0.00 | 0.15 | 0.08 | 58 | 1019.6 |
| 20260506224601 | 18 | 155 | 3.2 | 11.3 | 0.00 | 0.15 | 0.08 | 58 | 1019.5 |
| 20260506224118 | 18 | 191 | 3.2 | 11.3 | 0.00 | 0.15 | 0.08 | 59 | 1019.6 |
| 20260506224047 | 18 | 191 | 3.2 | 11.3 | 0.00 | 0.15 | 0.08 | 59 | 1019.6 |
| 20260506223547 | 18 | 148 | 3.2 | 11.3 | 0.00 | 0.15 | 0.08 | 57 | 1019.7 |
| 20260506223049 | 18 | 195 | 3.2 | 9.7 | 0.00 | 0.15 | 0.08 | 54 | 1019.7 |
| 20260506222550 | 18 | 148 | 3.2 | 9.7 | 0.00 | 0.15 | 0.08 | 59 | 1019.7 |
| 20260506222046 | 18 | 216 | 1.6 | 14.5 | 0.00 | 0.15 | 0.08 | 56 | 1019.7 |
| 20260506221553 | 18 | 170 | 1.6 | 14.5 | 0.00 | 0.15 | 0.08 | 58 | 1019.7 |
| 20260506221045 | 18 | 199 | 4.8 | 14.5 | 0.00 | 0.15 | 0.08 | 55 | 1019.9 |
| 20260506220548 | 18 | 213 | 3.2 | 9.7 | 0.00 | 0.15 | 0.08 | 58 | 1019.9 |
| 20260506220052 | 18 | 182 | 3.2 | 16.1 | 0.00 | 0.15 | 0.08 | 58 | 1020.0 |
| 20260506215545 | 18 | 0 | 6.4 | 16.1 | 0.00 | 0.15 | 0.08 | 55 | 1020.0 |
| 20260506215045 | 18 | 127 | 4.8 | 14.5 | 0.00 | 0.15 | 0.08 | 57 | 1020.0 |
| 20260506214607 | 18 | 168 | 1.6 | 14.5 | 0.00 | 0.15 | 0.08 | 56 | 1020.1 |
| 20260506214047 | 18 | 169 | 4.8 | 11.3 | 0.00 | 0.15 | 0.08 | 57 | 1020.1 |
| 20260506213548 | 18 | 147 | 3.2 | 14.5 | 0.00 | 0.15 | 0.08 | 58 | 1020.1 |
| 20260506213054 | 18 | 123 | 3.2 | 14.5 | 0.00 | 0.15 | 0.08 | 58 | 1020.2 |
| 20260506212546 | 18 | 188 | 3.2 | 12.9 | 0.00 | 0.15 | 0.08 | 59 | 1020.2 |
| 20260506212045 | 18 | 136 | 1.6 | 9.7 | 0.00 | 0.15 | 0.08 | 58 | 1020.2 |
| 20260506211551 | 18 | 154 | 3.2 | 11.3 | 0.00 | 0.15 | 0.08 | 59 | 1020.2 |
| 20260506211044 | 18 | 117 | 1.6 | 16.1 | 0.00 | 0.15 | 0.08 | 59 | 1020.2 |
| 20260506210546 | 17 | 191 | 1.6 | 17.7 | 0.03 | 0.15 | 0.08 | 62 | 1020.2 |
| 20260506210055 | 17 | 160 | 4.8 | 19.3 | 0.03 | 0.15 | 0.08 | 59 | 1020.2 |
| 20260506205545 | 17 | 150 | 4.8 | 19.3 | 0.03 | 0.18 | 0.08 | 59 | 1020.2 |
| 20260506205047 | 17 | 164 | 3.2 | 9.7 | 0.03 | 0.18 | 0.08 | 60 | 1020.2 |
| 20260506204559 | 17 | 124 | 3.2 | 19.3 | 0.03 | 0.18 | 0.08 | 59 | 1020.3 |
| 20260506204046 | 18 | 180 | 3.2 | 19.3 | 0.03 | 0.18 | 0.08 | 57 | 1020.2 |
| 20260506203545 | 18 | 165 | 1.6 | 14.5 | 0.03 | 0.18 | 0.08 | 59 | 1020.3 |
| 20260506203052 | 18 | 188 | 1.6 | 14.5 | 0.03 | 0.18 | 0.08 | 57 | 1020.4 |
| 20260506202545 | 18 | 153 | 4.8 | 14.5 | 0.03 | 0.18 | 0.08 | 58 | 1020.4 |
| 20260506202045 | 18 | 175 | 6.4 | 14.5 | 0.03 | 0.18 | 0.08 | 60 | 1020.5 |
| 20260506201600 | 18 | 118 | 1.6 | 9.7 | 0.03 | 0.18 | 0.08 | 61 | 1020.5 |
| 20260506201048 | 18 | 153 | 3.2 | 11.3 | 0.03 | 0.18 | 0.08 | 61 | 1020.5 |
| 20260506200546 | 17 | 193 | 3.2 | 11.3 | 0.00 | 0.15 | 0.05 | 58 | 1020.5 |
| 20260506200055 | 17 | 92 | 1.6 | 16.1 | 0.00 | 0.15 | 0.05 | 62 | 1020.6 |
| 20260506195545 | 17 | 205 | 4.8 | 20.9 | 0.00 | 0.15 | 0.05 | 61 | 1020.6 |
| 20260506195048 | 17 | 204 | 6.4 | 20.9 | 0.00 | 0.15 | 0.05 | 62 | 1020.6 |
| 20260506194604 | 17 | 194 | 3.2 | 16.1 | 0.00 | 0.15 | 0.05 | 62 | 1020.6 |
| 20260506194050 | 17 | 188 | 3.2 | 14.5 | 0.00 | 0.15 | 0.05 | 64 | 1020.7 |
| 20260506193548 | 17 | 181 | 3.2 | 14.5 | 0.00 | 0.15 | 0.05 | 65 | 1020.7 |
| 20260506193057 | 17 | 173 | 3.2 | 14.5 | 0.00 | 0.15 | 0.05 | 62 | 1020.8 |
| 20260506192545 | 16 | 0 | 1.6 | 16.1 | 0.00 | 0.15 | 0.05 | 65 | 1020.7 |
| 20260506192045 | 16 | 198 | 4.8 | 16.1 | 0.00 | 0.15 | 0.05 | 62 | 1020.8 |